Location: Recife
(8.0585°S, 34.8848°W)
Time: 13:44:49
(UTC-03:00)

Vanguard 2 - Pass Details

Date: 18 April 2026
Orbit: 553 x 2895 km, 32.9° (Epoch: 13 May)

Event Time Altitude Azimuth Distance (km) Brightness Sun altitude
Exits shadow 02:27:35 30° 186° (S) 3,816 10.8 -43.4°
Maximum altitude 02:30:45 33° 166° (SSE) 3,539 10.8 -42.7°
Drops below altitude 10° 02:41:21 10° 107° (ESE) 4,222 11.9 -40.1°
Sets 02:44:43 0° 97° (E) 4,889 12.5 -39.2°
